When you browse on this site, cookies collect data to enhance your experience and personalize the content and advertising you see.
Visit our Privacy Policy to learn more. By continuing to use the site, you agree to this use of cookies and data.
  • In Spain
  • List of Countries
  • For 7 days
  • Water Temperature
  • Satellite Maps
  • Weather Map
  • Weather Widgets
  • user-avatar
    Login

    Hourly Weather Dmitrovskiy

    Today, 16 January, Wednesday

    Time Temperature Precipitation Wind Pressure Humidity
    00:00 -12°C° 0 mm 4 mps 731 mmHg 97%
    01:00 -11°C° 0 mm 4 mps 731 mmHg 96%
    02:00 -10°C° 0 mm 4 mps 731 mmHg 96%
    03:00 -10°C° 0.1 mm 4 mps 731 mmHg 96%
    04:00 -9°C° 0.1 mm 3 mps 730 mmHg 96%
    05:00 -9°C° 0.1 mm 3 mps 730 mmHg 96%
    06:00 -10°C° 0 mm 3 mps 730 mmHg 96%
    07:00 -10°C° 0 mm 3 mps 730 mmHg 97%
    08:00 -10°C° 0 mm 3 mps 730 mmHg 97%
    09:00 -9°C° 0 mm 3 mps 731 mmHg 96%
    10:00 -9°C° 0 mm 3 mps 731 mmHg 95%
    11:00 -8°C° 0 mm 3 mps 731 mmHg 94%
    12:00 -8°C° 0 mm 3 mps 732 mmHg 92%
    13:00 -7°C° 0 mm 3 mps 732 mmHg 91%
    14:00 -8°C° 0 mm 4 mps 733 mmHg 89%
    15:00 -8°C° 0 mm 3 mps 733 mmHg 91%
    16:00 -9°C° 0 mm 3 mps 734 mmHg 92%
    17:00 -12°C° 0 mm 3 mps 735 mmHg 94%
    18:00 -12°C° 0 mm 3 mps 735 mmHg 94%
    19:00 -12°C° 0 mm 3 mps 736 mmHg 94%
    20:00 -12°C° 0 mm 3 mps 737 mmHg 94%
    21:00 -12°C° 0 mm 3 mps 737 mmHg 95%
    22:00 -12°C° 0 mm 3 mps 738 mmHg 95%
    23:00 -12°C° 0 mm 3 mps 738 mmHg 95%

    Tomorrow, 17 January, Thursday

    Time Temperature Precipitation Wind Pressure Humidity
    00:00 -12°C° 0 mm 3 mps 738 mmHg 95%
    01:00 -10°C° 0 mm 3 mps 739 mmHg 95%
    02:00 -11°C° 0 mm 4 mps 739 mmHg 95%
    03:00 -10°C° 0 mm 3 mps 740 mmHg 95%
    04:00 -10°C° 0 mm 3 mps 740 mmHg 95%
    05:00 -10°C° 0 mm 3 mps 740 mmHg 96%
    06:00 -11°C° 0 mm 4 mps 740 mmHg 95%
    07:00 -12°C° 0 mm 5 mps 740 mmHg 95%
    08:00 -12°C° 0 mm 5 mps 741 mmHg 94%
    09:00 -11°C° 0 mm 6 mps 740 mmHg 94%
    10:00 -12°C° 0 mm 7 mps 740 mmHg 93%
    11:00 -11°C° 0 mm 7 mps 740 mmHg 93%
    12:00 -11°C° 0 mm 7 mps 740 mmHg 92%
    13:00 -11°C° 0 mm 8 mps 740 mmHg 90%
    14:00 -10°C° 0 mm 8 mps 739 mmHg 89%
    15:00 -10°C° 0.1 mm 8 mps 739 mmHg 90%
    16:00 -8°C° 0.1 mm 8 mps 739 mmHg 90%
    17:00 -8°C° 0.1 mm 8 mps 738 mmHg 91%
    18:00 -8°C° 0.1 mm 9 mps 738 mmHg 91%
    19:00 -8°C° 0.1 mm 9 mps 738 mmHg 91%
    20:00 -8°C° 0.1 mm 9 mps 737 mmHg 91%
    21:00 -6°C° 0.1 mm 9 mps 737 mmHg 91%
    22:00 -6°C° 0.1 mm 9 mps 737 mmHg 90%
    23:00 -6°C° 0.1 mm 8 mps 737 mmHg 90%

    Day after tomorrow, 18 January, Friday

    Time Temperature Precipitation Wind Pressure Humidity
    00:00 -6°C° 0.1 mm 8 mps 737 mmHg 90%
    01:00 -5°C° 0.1 mm 8 mps 737 mmHg 90%
    02:00 -5°C° 0.1 mm 8 mps 737 mmHg 91%
    03:00 -5°C° 0 mm 8 mps 737 mmHg 91%
    04:00 -5°C° 0 mm 8 mps 737 mmHg 92%
    05:00 -4°C° 0 mm 7 mps 737 mmHg 92%
    06:00 -4°C° 0 mm 7 mps 737 mmHg 93%
    07:00 -6°C° 0 mm 7 mps 737 mmHg 93%
    08:00 -6°C° 0 mm 7 mps 737 mmHg 93%
    09:00 -4°C° 0 mm 7 mps 737 mmHg 93%
    10:00 -4°C° 0 mm 7 mps 737 mmHg 93%
    11:00 -5°C° 0 mm 8 mps 737 mmHg 93%
    12:00 -3°C° 0.2 mm 7 mps 736 mmHg 93%
    13:00 -3°C° 0.2 mm 7 mps 736 mmHg 93%
    14:00 -2°C° 0.2 mm 7 mps 736 mmHg 93%
    15:00 -2°C° 0.4 mm 7 mps 736 mmHg 93%
    16:00 -3°C° 0.4 mm 7 mps 736 mmHg 93%
    17:00 -3°C° 0.4 mm 6 mps 736 mmHg 92%
    18:00 -3°C° 0.1 mm 6 mps 736 mmHg 92%
    19:00 -3°C° 0.1 mm 6 mps 736 mmHg 91%
    20:00 -3°C° 0.1 mm 6 mps 736 mmHg 91%
    21:00 -4°C° 0 mm 6 mps 736 mmHg 90%
    22:00 -5°C° 0 mm 6 mps 736 mmHg 89%
    23:00 -6°C° 0 mm 6 mps 736 mmHg 88%

    19 January, Saturday

    Time Temperature Precipitation Wind Pressure Humidity
    00:00 -6°C° 0 mm 7 mps 737 mmHg 88%
    01:00 -6°C° 0 mm 7 mps 738 mmHg 88%
    02:00 -6°C° 0 mm 8 mps 739 mmHg 88%
    03:00 -8°C° 0 mm 7 mps 740 mmHg 87%
    04:00 -9°C° 0 mm 7 mps 741 mmHg 87%
    05:00 -11°C° 0 mm 6 mps 741 mmHg 86%
    06:00 -12°C° 0 mm 6 mps 742 mmHg 89%
    07:00 -13°C° 0 mm 5 mps 743 mmHg 92%
    08:00 -14°C° 0 mm 5 mps 744 mmHg 95%
    09:00 -13°C° 0 mm 5 mps 744 mmHg 94%
    10:00 -12°C° 0 mm 6 mps 745 mmHg 93%
    11:00 -11°C° 0 mm 6 mps 745 mmHg 92%
    12:00 -10°C° 0 mm 6 mps 745 mmHg 91%
    13:00 -10°C° 0 mm 6 mps 745 mmHg 90%
    14:00 -9°C° 0 mm 6 mps 745 mmHg 88%
    15:00 -10°C° 0 mm 5 mps 746 mmHg 89%
    16:00 -10°C° 0 mm 5 mps 746 mmHg 90%
    17:00 -9°C° 0 mm 4 mps 746 mmHg 90%
    18:00 -10°C° 0 mm 4 mps 746 mmHg 92%
    19:00 -11°C° 0 mm 4 mps 746 mmHg 93%
    20:00 -13°C° 0 mm 5 mps 747 mmHg 95%
    21:00 -13°C° 0 mm 5 mps 747 mmHg 94%
    22:00 -13°C° 0 mm 5 mps 747 mmHg 93%
    23:00 -13°C° 0 mm 5 mps 747 mmHg 92%

    20 January, Sunday

    Time Temperature Precipitation Wind Pressure Humidity
    00:00 -13°C° 0 mm 5 mps 747 mmHg 92%
    01:00 -13°C° 0 mm 5 mps 747 mmHg 93%
    02:00 -13°C° 0 mm 5 mps 747 mmHg 93%
    03:00 -14°C° 0 mm 4 mps 747 mmHg 94%
    04:00 -14°C° 0 mm 4 mps 747 mmHg 95%
    05:00 -14°C° 0 mm 4 mps 746 mmHg 96%
    06:00 -14°C° 0 mm 4 mps 746 mmHg 96%
    07:00 -14°C° 0 mm 4 mps 746 mmHg 96%
    08:00 -14°C° 0 mm 4 mps 747 mmHg 96%
    09:00 -14°C° 0 mm 4 mps 746 mmHg 95%
    10:00 -12°C° 0 mm 4 mps 746 mmHg 94%
    11:00 -13°C° 0 mm 5 mps 746 mmHg 94%
    12:00 -12°C° 0 mm 4 mps 746 mmHg 94%
    13:00 -12°C° 0 mm 4 mps 746 mmHg 93%
    14:00 -12°C° 0 mm 4 mps 745 mmHg 93%
    15:00 -12°C° 0 mm 4 mps 745 mmHg 94%
    16:00 -13°C° 0 mm 3 mps 745 mmHg 95%
    17:00 -13°C° 0 mm 3 mps 745 mmHg 96%
    18:00 -13°C° 0 mm 3 mps 745 mmHg 96%
    19:00 -13°C° 0 mm 3 mps 745 mmHg 97%
    20:00 -12°C° 0 mm 2 mps 745 mmHg 97%
    21:00 -12°C° 0 mm 2 mps 745 mmHg 97%
    22:00 -12°C° 0 mm 2 mps 745 mmHg 97%
    23:00 -12°C° 0 mm 2 mps 745 mmHg 97%

    21 January, Monday

    Time Temperature Precipitation Wind Pressure Humidity
    00:00 -10°C° 0 mm 1 mps 744 mmHg 97%
    01:00 -10°C° 0 mm 1 mps 744 mmHg 96%
    02:00 -10°C° 0 mm 1 mps 744 mmHg 96%
    03:00 -11°C° 0 mm 1 mps 744 mmHg 97%
    04:00 -12°C° 0 mm 0 mps 744 mmHg 97%
    05:00 -13°C° 0 mm 0 mps 743 mmHg 97%
    06:00 -12°C° 0 mm 1 mps 744 mmHg 97%
    07:00 -12°C° 0 mm 1 mps 744 mmHg 97%
    08:00 -14°C° 0 mm 2 mps 744 mmHg 97%
    09:00 -13°C° 0 mm 2 mps 744 mmHg 97%
    10:00 -12°C° 0 mm 2 mps 744 mmHg 96%
    11:00 -12°C° 0 mm 2 mps 744 mmHg 96%
    12:00 -10°C° 0 mm 2 mps 744 mmHg 95%
    13:00 -12°C° 0 mm 3 mps 744 mmHg 94%
    14:00 -12°C° 0 mm 3 mps 744 mmHg 93%
    15:00 -12°C° 0 mm 3 mps 744 mmHg 94%
    16:00 -12°C° 0 mm 2 mps 745 mmHg 94%
    17:00 -12°C° 0 mm 2 mps 745 mmHg 95%
    18:00 -12°C° 0 mm 2 mps 745 mmHg 95%
    19:00 -13°C° 0 mm 2 mps 746 mmHg 95%
    20:00 -13°C° 0 mm 2 mps 746 mmHg 94%
    21:00 -13°C° 0 mm 2 mps 746 mmHg 94%
    22:00 -13°C° 0 mm 2 mps 747 mmHg 95%
    23:00 -14°C° 0 mm 2 mps 747 mmHg 95%
    Show more